Tracking 30703 objects as of 12-Jun-2025
HD Live streaming from Space Station
objects crossing your sky now

TIANMU-1 07

Track TIANMU-1 07 now!
10-day predictions


NORAD ID: 57399
Int'l Code: 2023-101A
Perigee: 494.4 km
Apogee: 500.7 km
Inclination: 97.3 °
Period: 94.4 minutes
Semi major axis: 6868 km
RCS: Unknown
Launch date: July 20, 2023
Source: People's Republic of China (PRC)
Launch site: Jiuquan Satellite Launch Center, China (JSC)
Your satellite tracking list
Your tracking list is empty




NASA's NSSDC Master Catalog

Two Line Element Set (TLE):
1 57399U 23101A   25163.49380443  .00005434  00000-0  21964-3 0  9993
2 57399  97.3104 217.5050 0004588  30.1016 330.0485 15.25139452105203
Source of the keplerian elements: AFSPC